Location: Arboucave
(43.6130°N, 0.4343°W)
Time: 06:22:28
(UTC+00:00)

COSMOS 2406 - Pass Details

Date: 17 November 2025
Orbit: 845 x 858 km, 71.0° (Epoch: 04 December)

Event Time Altitude Azimuth Distance (km) Brightness Sun altitude
Rises 18:19:19 0° 338° (NNW) 3,416 6.5 -18.9°
Reaches altitude 10° 18:21:51 10° 344° (NNW) 2,478 5.7 -19.3°
Maximum altitude 18:27:22 50° 60° (ENE) 1,078 3.3 -20.3°
Enters shadow 18:29:08 37° 108° (ESE) 1,292 3.7 -20.6°
